Regional Weather Roundup
Issued by NWS

Home | Current Version | Previous Version | Graphics & Text | Print | Product List | Glossary On
Versions: 1 2 3 4 5 6 7 8 9 10 11 12 13 14 15 16 17 18 19 20 21 22 23 24 25 26 27 28 29 30 31 32 33 34 35 36 37 38 39 40 41 42 43 44 45 46 47 48 49 50
000
ASUS43 KOAX 260802
RWRNE

WEATHER ROUNDUP FOR NEBRASKA
NATIONAL WEATHER SERVICE OMAHA NE
300 AM CDT FRI MAY 26 2017

NOTES: SATELLITE DATA IS BEING USED TO AUGMENT CLOUD COVER ABOVE
       12000 FEET.
       "FAIR" INDICATES FEW OR NO CLOUDS BELOW 12,000 FEET WITH NO
       SIGNIFICANT WEATHER AND/OR OBSTRUCTIONS TO VISIBILITY.

  * THESE STATIONS DO NOT REPORT WEATHER SUCH AS RAIN...SNOW OR FOG.

NEZ001>004-019>022-054>056-260900-
NEBRASKA PANHANDLE

CITY           SKY/WX    TMP DP  RH WIND       PRES   REMARKS
SCOTTSBLUFF    CLOUDY    49  36  61 NW9       29.90R
ALLIANCE       PTCLDY    45  41  86 NW7       29.87R
CHADRON        PTCLDY    45  39  79 W5        29.87R
SIDNEY         CLOUDY    48  43  82 N14       29.87R
$$

NEZ057>060-069>072-079>082-260900-
SOUTHWEST NEBRASKA

CITY           SKY/WX    TMP DP  RH WIND       PRES   REMARKS
NORTH PLATTE   CLOUDY    54  52  93 N6        29.76R
IMPERIAL       CLOUDY    57  52  83 NW9       29.81R
LEXINGTON      CLOUDY    60  55  84 N6        29.69S
MCCOOK         CLOUDY    57  54  89 NW9       29.73R
$$

NEZ005>010-023>029-035>040-094-260900-
NORTH CENTRAL NEBRASKA

CITY           SKY/WX    TMP DP  RH WIND       PRES   REMARKS
VALENTINE      CLOUDY    54  40  59 NW10      29.80R
AINSWORTH      CLOUDY    56  44  64 N14       29.78R
BROKEN BOW     CLOUDY    59  52  77 N7        29.70R
ORD            MOCLDY    57  53  86 NE6       29.66F
$$

NEZ041-046>049-061>064-073>077-083>087-260900-
SOUTH CENTRAL NEBRASKA

CITY           SKY/WX    TMP DP  RH WIND       PRES   REMARKS
GRAND ISLAND   MOCLDY    61  57  87 NW9       29.66F
AURORA         CLOUDY    62  58  87 N7        29.64F
HASTINGS       CLOUDY    64  55  72 N13       29.66S
KEARNEY *      MOCLDY    63  54  72 N5        29.68S
$$

NEZ011>018-030>034-042>045-260900-
NORTHEAST NEBRASKA

CITY           SKY/WX    TMP DP  RH WIND       PRES   REMARKS
NORFOLK        CLOUDY    56  52  86 W3        29.65S
ALBION         MOCLDY    55  52  88 CALM      29.67S
BLAIR          CLOUDY    66  56  69 SE7       29.64F
FREMONT        CLOUDY    65  55  70 SE3       29.65S
TEKAMAH        CLOUDY    63  56  78 SE7       29.64F
$$

NEZ050>053-065>068-078-088>093-260900-
SOUTHEAST NEBRASKA

CITY           SKY/WX    TMP DP  RH WIND       PRES   REMARKS
LINCOLN        MOCLDY    66  57  72 CALM      29.64R
OMAHA EPPLEY   CLOUDY    67  55  65 SE7       29.63F
BEATRICE       CLOUDY    63  60  91 CALM      29.62R
FALLS CITY     CLOUDY    62  58  86 E7        29.57F
NEBRASKA CITY  CLOUDY    66  52  61 SE6       29.61F
$$

NEZ044-045-051>053-067-260900-
OMAHA AREA

CITY           SKY/WX    TMP DP  RH WIND       PRES   REMARKS
OMAHA EPPLEY   CLOUDY    67  55  65 SE7       29.63F
BLAIR          CLOUDY    66  56  69 SE7       29.64F
FREMONT        CLOUDY    65  55  70 SE3       29.65S
OFFUTT AFB     CLOUDY    64  55  73 E5        29.62F
WAHOO          CLOUDY    63  56  77 E3        29.64S
$$




USA.gov is the U.S. government's official web portal to all federal, state and local government web resources and services.